Location: La Bilong�re
(48.1297°N, 1.4584°W)
Time: 03:57:43
(UTC+00:00)

Cosmos 1666 Rocket - Pass Details

Date: 03 March 2021
Orbit: 605 x 632 km, 82.5° (Epoch: 17 April)

Event Time Altitude Azimuth Distance (km) Brightness Sun altitude
Rises 18:57:54 0° 201° (SSW) 2,858 7.2 -11.6°
Reaches altitude 10° 19:00:10 10° 207° (SSW) 1,956 6.4 -11.9°
Maximum altitude 19:04:23 51° 283° (WNW) 769 4.5 -12.6°
Drops below altitude 10° 19:08:37 10° 0° (N) 1,965 6.2 -13.3°
Sets 19:10:54 0° 6° (N) 2,874 7.0 -13.7°
